Sherwood
DateTemperatureDew Point
07/12 - 11:30 PM82.7°62.2°
07/12 - 11:15 PM83.4°61.9°
07/12 - 11:00 PM83.5°61.9°
07/12 - 10:45 PM83.8°62.3°
07/12 - 10:30 PM84.1°63.1°
07/12 - 10:15 PM83.7°63.0°
07/12 - 10:00 PM83.1°64.0°
07/12 - 09:45 PM83.0°64.9°
07/12 - 09:30 PM83.3°65.8°
07/12 - 09:15 PM83.8°66.0°
07/12 - 09:00 PM84.3°64.7°
07/12 - 08:45 PM85.6°63.2°
07/12 - 08:30 PM87.7°61.1°
07/12 - 08:15 PM89.1°60.3°
07/12 - 08:00 PM90.1°60.7°
07/12 - 07:45 PM92.0°62.5°
07/12 - 07:30 PM94.0°64.0°
07/12 - 07:15 PM96.1°64.0°
07/12 - 07:00 PM98.6°63.9°
07/12 - 06:45 PM100.5°62.9°
07/12 - 06:30 PM100.9°63.9°
07/12 - 06:15 PM100.0°64.9°
07/12 - 06:00 PM101.9°64.0°
07/12 - 05:45 PM103.8°64.2°
07/12 - 05:30 PM104.6°64.4°
07/12 - 05:15 PM106.4°61.2°
07/12 - 05:00 PM107.5°61.4°
07/12 - 04:45 PM107.3°59.9°
07/12 - 04:30 PM104.5°61.8°
07/12 - 04:15 PM103.4°64.2°
07/12 - 04:00 PM103.4°63.0°
07/12 - 03:45 PM105.3°58.7°
07/12 - 03:30 PM106.0°57.5°
07/12 - 03:15 PM105.2°59.1°
07/12 - 03:00 PM105.8°59.5°
07/12 - 02:45 PM107.4°60.4°
07/12 - 02:30 PM106.9°61.7°
07/12 - 02:15 PM105.3°61.4°
07/12 - 02:00 PM103.8°62.2°
07/12 - 01:45 PM101.2°61.6°
07/12 - 01:30 PM101.0°61.2°
07/12 - 01:15 PM100.6°60.5°
07/12 - 01:00 PM100.4°61.5°
07/12 - 12:45 PM100.2°60.8°
07/12 - 12:30 PM101.3°59.8°
07/12 - 12:15 PM100.5°60.3°
07/12 - 12:00 PM98.8°60.4°
07/12 - 11:45 AM101.2°57.0°
07/12 - 11:30 AM101.1°58.8°
07/12 - 11:15 AM100.2°59.9°
07/12 - 11:00 AM99.3°57.8°
07/12 - 10:45 AM98.2°58.1°
07/12 - 10:30 AM97.0°56.4°
07/12 - 10:15 AM96.1°56.0°
07/12 - 10:00 AM97.1°56.5°
07/12 - 09:45 AM95.3°58.1°
07/12 - 09:30 AM92.9°58.2°
07/12 - 09:15 AM91.4°58.4°
07/12 - 09:00 AM90.0°59.1°
07/12 - 08:45 AM87.5°61.6°
07/12 - 08:30 AM85.1°65.3°
07/12 - 08:15 AM83.8°64.0°
07/12 - 08:00 AM81.8°61.9°
07/12 - 07:45 AM79.1°58.1°
07/12 - 07:30 AM77.7°61.4°
07/12 - 07:15 AM76.2°59.7°
07/12 - 07:00 AM74.7°60.1°
07/12 - 06:45 AM74.9°60.8°
07/12 - 06:30 AM75.4°57.9°
07/12 - 06:15 AM76.1°55.0°
07/12 - 06:00 AM75.2°52.1°
07/12 - 05:45 AM73.6°52.5°
07/12 - 05:30 AM73.7°54.4°
07/12 - 05:15 AM74.4°54.5°
07/12 - 05:00 AM75.0°53.7°
07/12 - 04:45 AM75.7°52.4°
07/12 - 04:30 AM75.8°50.3°
07/12 - 04:15 AM75.9°50.4°
07/12 - 04:00 AM75.9°47.4°
07/12 - 03:45 AM74.4°46.5°
07/12 - 03:30 AM73.9°49.6°
07/12 - 03:15 AM74.2°50.9°
07/12 - 03:00 AM74.8°50.3°
07/12 - 02:45 AM75.2°49.7°
07/12 - 02:30 AM75.6°48.9°
07/12 - 02:15 AM75.5°47.2°
07/12 - 02:00 AM75.7°47.8°
07/12 - 01:45 AM76.0°48.4°
07/12 - 01:30 AM75.7°48.7°
07/12 - 01:15 AM75.7°50.7°
07/12 - 01:00 AM75.9°52.9°
07/12 - 12:45 AM75.8°52.4°
07/12 - 12:30 AM76.0°52.8°
07/12 - 12:15 AM77.0°54.8°
07/12 - 12:00 AM77.3°53.2°
07/11 - 11:45 PM77.6°53.3°
07/11 - 11:30 PM78.6°55.5°
07/11 - 11:15 PM79.8°54.3°
07/11 - 11:00 PM80.8°56.0°
07/11 - 10:45 PM81.4°55.0°
07/11 - 10:30 PM82.0°59.1°
07/11 - 10:15 PM82.0°61.2°
07/11 - 10:00 PM80.9°62.6°
07/11 - 09:45 PM80.2°64.0°
07/11 - 09:30 PM81.7°65.4°
07/11 - 09:15 PM82.4°64.7°
07/11 - 09:00 PM83.1°65.7°
07/11 - 08:45 PM84.8°66.5°
07/11 - 08:30 PM86.7°67.1°
07/11 - 08:15 PM88.9°68.1°
07/11 - 08:00 PM91.0°68.7°
07/11 - 07:45 PM93.0°69.3°
07/11 - 07:30 PM94.8°70.6°
07/11 - 07:15 PM96.8°70.3°
07/11 - 07:00 PM98.6°69.9°
07/11 - 06:45 PM100.6°68.8°
07/11 - 06:30 PM102.3°68.4°
07/11 - 06:15 PM103.6°67.4°
07/11 - 06:00 PM105.0°66.9°
07/11 - 05:45 PM106.2°65.7°
07/11 - 05:30 PM107.2°64.8°
07/11 - 05:15 PM107.8°65.5°
07/11 - 05:00 PM108.8°66.6°
07/11 - 04:45 PM109.0°65.8°
07/11 - 04:30 PM110.3°65.7°
07/11 - 04:15 PM110.2°64.3°
07/11 - 04:00 PM110.5°63.2°
07/11 - 03:45 PM111.0°63.6°
07/11 - 03:30 PM110.9°63.9°
07/11 - 03:15 PM110.4°64.2°
07/11 - 03:00 PM110.1°64.6°
07/11 - 02:45 PM109.6°63.9°
07/11 - 02:30 PM109.1°64.1°
07/11 - 02:15 PM108.8°63.7°
07/11 - 02:00 PM108.1°63.5°
07/11 - 01:45 PM107.8°64.0°
07/11 - 01:30 PM107.2°65.4°
07/11 - 01:15 PM106.6°65.8°
07/11 - 01:00 PM105.8°64.8°
07/11 - 12:45 PM104.8°66.0°
07/11 - 12:30 PM104.7°65.4°
07/11 - 12:15 PM103.6°64.5°
07/11 - 12:00 PM103.1°63.1°
07/11 - 11:45 AM102.0°63.8°
07/11 - 11:30 AM101.1°62.9°
07/11 - 11:15 AM100.2°61.3°
07/11 - 11:00 AM99.2°63.0°
07/11 - 10:45 AM98.8°63.7°
07/11 - 10:30 AM97.6°62.7°
07/11 - 10:15 AM96.8°61.1°
07/11 - 10:00 AM95.4°60.9°
07/11 - 09:45 AM94.1°60.8°
07/11 - 09:30 AM92.7°61.5°
07/11 - 09:15 AM91.5°62.2°
07/11 - 09:00 AM90.2°62.3°
07/11 - 08:45 AM88.7°61.4°
07/11 - 08:30 AM86.9°59.7°
07/11 - 08:15 AM84.9°60.4°
07/11 - 08:00 AM82.1°60.8°
07/11 - 07:45 AM78.9°61.8°
07/11 - 07:30 AM76.6°61.8°
07/11 - 07:15 AM74.7°60.5°
07/11 - 07:00 AM72.9°59.9°
07/11 - 06:45 AM71.0°59.6°
07/11 - 06:30 AM70.3°61.3°
07/11 - 06:15 AM70.2°59.8°
07/11 - 06:00 AM70.1°58.5°
07/11 - 05:45 AM70.2°57.7°
07/11 - 05:30 AM70.7°58.5°
07/11 - 05:15 AM71.4°57.9°
07/11 - 05:00 AM72.2°57.9°
07/11 - 04:45 AM72.6°57.3°
07/11 - 04:30 AM72.6°56.4°
07/11 - 04:15 AM72.4°57.0°
07/11 - 04:00 AM72.8°57.9°
07/11 - 03:45 AM73.0°57.6°
07/11 - 03:30 AM73.0°57.1°
07/11 - 03:15 AM73.5°58.1°
07/11 - 03:00 AM73.2°56.5°
07/11 - 02:45 AM72.4°56.7°
07/11 - 02:30 AM71.5°57.0°
07/11 - 02:15 AM71.6°59.0°
07/11 - 02:00 AM72.1°59.2°
07/11 - 01:45 AM72.5°59.0°
07/11 - 01:30 AM72.9°59.9°
07/11 - 01:15 AM72.7°59.1°
07/11 - 01:00 AM72.9°59.6°
07/11 - 12:45 AM73.7°59.5°
07/11 - 12:30 AM74.2°58.9°
07/11 - 12:15 AM74.7°59.0°